Regional Weather Roundup
Issued by NWS Portland, ME

Current Version | Previous Version | Text Only | Print | Product List | Glossary Off
Versions: 1 2 3 4 5 6 7 8 9 10 11 12 13 14 15 16 17 18 19 20 21 22 23 24 25 26 27 28 29 30 31 32 33 34 35 36 37 38 39 40 41 42 43 44 45 46 47 48 49 50
046 ASUS41 KGYX 170610 RWRGYX WEATHER ROUNDUP FOR MAINE AND NEW HAMPSHIRE NATIONAL WEATHER SERVICE GRAY ME 100 AM EST SUN FEB 17 2019 MEZ002-005-006-010-012-015-018-020-021-024-026-027-029-170700- MAINE CITY SKY/WX TMP DP RH WIND PRES REMARKS PORTLAND FAIR 22 11 62 NW9 29.99R 6HR MIN TEMP: 21; 6HR MAX TEMP: 33; SANFORD FAIR 21 11 65 NW7 29.99R BAR HARBOR FAIR 21 11 65 W6 29.94R WISCASSET FAIR 21 11 65 CALM 29.98R 6HR MIN TEMP: 20; 6HR MAX TEMP: 31; ROCKLAND FAIR 21 11 65 W5 29.96R FRYEBURG FAIR 16 6 65 NW5 29.97R 6HR MIN TEMP: 8; 6HR MAX TEMP: 28; LEWISTONAUBURN FAIR 17 9 70 W6 29.97R AUGUSTA FAIR 19 8 62 NW7G17 29.95R 6HR MIN TEMP: 19; 6HR MAX TEMP: 27; WATERVILLE FAIR 15 8 73 CALM 29.93R BANGOR FAIR 19 8 62 NW14G24 29.92S WCI 6 6HR MIN TEMP: 18; 6HR MAX TEMP: 29; GREENVILLE N/A 12 2 64 NW16G24 29.80S WCI -5 6HR MIN TEMP: 12; 6HR MAX TEMP: 17; MILLINOCKET FAIR 17 6 62 VRB5 29.89R 6HR MIN TEMP: 17; 6HR MAX TEMP: 25; 6HR PCP: TRACE; HOULTON FAIR 15 6 67 W10 29.84R WCI 2 6HR MIN TEMP: 15; 6HR MAX TEMP: 25; PRESQUE ISLE CLOUDY 14 8 77 W8 29.86R 6HR MIN TEMP: 14; 6HR MAX TEMP: 25; 6HR PCP: TRACE; FRENCHVILLE FAIR 11 1 64 NW13G22 29.79R WCI -4 6HR MIN TEMP: 11; 6HR MAX TEMP: 20; 6HR PCP: TRACE; CARIBOU FAIR 12 5 73 NW9 29.82R 6HR MIN TEMP: 10; 6HR MAX TEMP: 26; 6HR PCP: 0.03; $$ NHZ002-005-008-009-011-012-014-170700- NEW HAMPSHIRE CITY SKY/WX TMP DP RH WIND PRES REMARKS PORTSMOUTH MOCLDY 23 10 56 NW8 29.99R ROCHESTER FAIR 22 9 57 NW9G18 29.97R 6HR MIN TEMP: 22; 6HR MAX TEMP: 32; NASHUA FAIR 23 10 57 NW10G24 30.03R WCI 12 MANCHESTER FAIR 24 9 52 NW9 30.01R 6HR MIN TEMP: 24; 6HR MAX TEMP: 34; CONCORD FAIR 20 9 62 NW12 30.01S WCI 8 6HR MIN TEMP: 20; 6HR MAX TEMP: 31; LACONIA FAIR 18 9 68 W7 30.01R PLYMOUTH FAIR 18 9 70 CALM 30.03R BERLIN CLOUDY 17 8 67 W6 29.95R 6HR MIN TEMP: 16; 6HR MAX TEMP: 19; WHITEFIELD CLOUDY 18 8 65 W6 29.99R 6HR MIN TEMP: 17; 6HR MAX TEMP: 21; 6HR PCP: TRACE; JAFFREY FAIR 21 9 59 VRB3 29.97R 6HR MIN TEMP: 20; 6HR MAX TEMP: 30; KEENE FAIR 21 11 65 VRB3 30.04R LEBANON FAIR 13 4 67 NE3 30.04R 6HR MIN TEMP: 12; 6HR MAX TEMP: 28; MT WASHINGTON MOCLDY -2 -11 65 NW59 N/A WCI -36 6HR MIN TEMP: -5; 6HR MAX TEMP: 1; 6HR PCP: TRACE; $$ VTZ005-007-008-170700- VERMONT CITY SKY/WX TMP DP RH WIND PRES REMARKS ST JOHNSBURY N/A 11 7 84 MISG 30.02R MONTPELIER CLOUDY 14 7 73 NW7 30.05R BURLINGTON MOCLDY 17 6 62 N7 30.11R $$ MAZ007-012-024-CTZ003-RIZ002-NYZ038-NYZ072-170700- SOUTHERN NEW ENGLAND AND NY CITY SKY/WX TMP DP RH WIND PRES REMARKS BOSTON FAIR 29 11 47 NW15 30.01R WCI 18 WORCESTER FAIR 23 11 60 NW7 29.96R NANTUCKET FAIR 32 23 69 NW15 29.94F PROVIDENCE FAIR 29 17 61 NW10 30.00R WCI 20 HARTFORD FAIR 25 14 63 NW8 30.05R ALBANY FAIR 22 11 62 W10 30.10R WCI 11 NEW YORK CITY MOCLDY 31 15 52 N12 30.06R $$ ANZ081-ANZ082-ANZ150-NHZ014-MEZ023>029-170700- COASTAL MARINE OBSERVATIONS STATION/POSITION TIME TEMP WIND PRES WAVE AIR SEA DIR/SP/G HT/PER (UTC) (F) (DEG/KT/KT) (MB) (FT/S) MOUNT DESERT ROC 0600 25 290/ 20/ 23 1013.2R MATINICUS ROCK 0500 26 310/ 19/ 20 1012.8R ISLE OF SHOALS 0500 26 320/ 20/ 22 1014.7R JEFFREYS LEDGE 0538 40 N/A 5/ 9 CASHES LEDGE BUO 0550 27 40 1014.0R 6/ 6 $$ .............KEY.............. WCI - WIND CHILL TC - TEMPERATURE IN CELSIUS VSB - VISIBILITY IN MILES HX - HEAT INDEX FAIR- INDICATES FEW OR NO CLOUDS BELOW 12,000 FT, WITH NO SIGNIFICANT WEATHER AND/OR OBSTRUCTIONS TO VISIBILITY.

USA.gov is the U.S. government's official web portal to all federal, state and local government web resources and services.